Погода в Рожняве

Словакия     48°39′44″N   20°31′57″E
темп.,
°C
ветер,
м/с
пор.,
м/с
влажн.,
%
обл.,
%
осадки,
мм/ч
давл.,
гПа
погр.,
м
9 мая, вс
вс923:00+2ссв11785 0.0 102311
02:00+1ссз118236 0.0 102410
05:00+1зсз008372 0.0 102410
08:00+8ююз255444 0.0 1023498
11:00+11ююз57435 0.0 10231173
14:00+14ююз57415 0.0 10221346
17:00+14ююз574641 0.0 10211166
20:00+8ююз23835 0.0 102246
10 мая, пн
пн1023:00+6ююз119137 0.0 102323
02:00+5юз118811 0.0 102219
05:00+4ююз11875 0.0 102221
08:00+11ю24575 0.0 1021338
11:00+16ю47440 0.0 1019978
14:00+18ю474685 0.0 10181147
17:00+17ю465615 0.0 10181106
20:00+11ююв11916 0.0 101915
11 мая, вт
вт1123:00+10ю119446 0.0 101817
02:00+9ю119429 0.0 101814
05:00+9ююз11950 0.0 101723
08:00+14ююз25640 0.0 1016462
11:00+19ююз35490 0.0 10151000
14:00+21ю45490 0.0 10131344
17:00+20ююв33570 0.0 10121134
20:00+13юв11910 0.0 101111
12 мая, ср
ср1223:00+12ссз11930 0.0 101111
02:00+11ссв11940 0.0 100911
05:00+10св11940 0.0 100811
08:00+16в11733 0.0 1007419
11:00+21юв23463 0.0 10051615
14:00+21юв444417 0.0 10031711
17:00+18юв2467100 0.3 1002961
20:00+12вюв1194100 3.8 100213
13 мая, чт
чт1323:00+12всв119892 4.2 100216
02:00+11ююз2398100 5.9 1001326
05:00+8ю3499100 0.1 1002321
08:00+8ю3599100 0.1 1003366
11:00+8ююз3597100 0.1 1003478
14:00+9ююз3691100 0.2 1004624
17:00+11ююз357899 0.1 1004699
20:00+7ююз249483 0.1 1005153